Terug naar catalogus

YAOGAN-39 01B

ActiefMilitairVLEO
NORAD 57728·PAYLOAD·🇨🇳 China

Gelanceerd Aug 31, 2023 vanaf Xichang Satellite Launch Center

Loading…

Volgende Passages (komende 24 uur)

TLE

VersSource: Space-Track

Epoch: Sep 14, 2026, 14:03 UTC

1 57728U 23130B   26257.58575088  .00004003  00000-0  19954-3 0  9994
2 57728  34.9947 315.3677 0009229 165.8666 194.2306 15.16972726169062

Volg YAOGAN-39 01B in realtime met AllMySat

Download on the App Store